Weather History for KPSP - October, 2013

Change the Weather History Date:

Wednesday, October 9, 2013

  Actual Average Record
Temperature  
Mean Temperature 67 °F 78 °F  
Max Temperature 72 °F 92 °F 110 °F (1991)
Min Temperature 61 °F 65 °F 44 °F (1961)
Degree Days  
Heating Degree Days 0 0  
Month to date heating degree days 0 0  
Since 1 July heating degree days 0 0  
Cooling Degree Days 2 13  
Month to date cooling degree days 107 130  
Year to date cooling degree days 4272 3856  
Growing Degree Days 12 (Base 50)    
Moisture  
Dew Point 44 °F    
Average Humidity 43    
Maximum Humidity 52    
Minimum Humidity 33    
Precipitation  
Precipitation T in 0.01 in 0.07 in (2013)
Month to date precipitation T 0.08  
Year to date precipitation 2.05 3.97  
Since 1 July precipitation 1.08 1.03  
Snow  
Snow 0.00 in - - ()
Month to date snowfall 0.0  
Year to date snowfall 0.0  
Since 1 July snowfall 0.0  
Snow Depth 0.00 in    
Sea Level Pressure  
Sea Level Pressure 29.70 in    
Wind  
Wind Speed 8 mph (NNW)    
Max Wind Speed 23 mph    
Max Gust Speed 29 mph    
Visibility 10 miles    
Events Rain    
T = Trace of Precipitation, MM = Missing Value Source: NWS Daily Summary

Daily Weather History Graph

Daily Weather History Graph

Search for Another Location

Airport or City:

Trip Planner

Search our weather history database for the weather conditions in past years. The results will help you decide how hot, cold, wet, or windy it might be!

Date:

Astronomy

Oct. 09, 2013 Rise Set
Actual Time 6:46 AM PDT 6:19 PM PDT
Civil Twilight 6:21 AM PDT 6:44 PM PDT
Nautical Twilight 5:52 AM PDT 7:13 PM PDT
Astronomical Twilight 5:23 AM PDT 7:41 PM PDT
Moon 11:35 AM PDT (10/9) 10:09 PM PDT (10/9)
Length of Visible Light 12h 22m
Length of Day
11h 32m
Waxing Crescent, 26% of the Moon is Illuminated
Oct 9
Waxing Crescent
Oct 11
First Quarter
Oct 18
Full
Oct 26
Last Quarter
Nov 3
New

Hourly Weather History & Observations

Time (PDT) Temp. Dew Point Humidity Pressure Visibility Wind Dir Wind Speed Gust Speed Precip Events Conditions
12:53 AM 68.0 °F 43.0 °F 40% 29.65 in 10.0 mi NW 12.7 mph 25.3 mph N/A   Clear
1:53 AM 66.0 °F 44.1 °F 45% 29.65 in 10.0 mi NW 6.9 mph - N/A   Clear
2:53 AM 66.0 °F 44.1 °F 45% 29.64 in 10.0 mi NW 13.8 mph 26.5 mph N/A   Clear
3:53 AM 64.9 °F 44.1 °F 47% 29.65 in 10.0 mi NW 9.2 mph - N/A   Clear
4:53 AM 63.0 °F 44.1 °F 50% 29.65 in 10.0 mi Variable 4.6 mph - N/A   Clear
5:53 AM 63.0 °F 42.1 °F 46% 29.67 in 10.0 mi Variable 4.6 mph - N/A   Clear
6:53 AM 62.1 °F 43.0 °F 50% 29.69 in 10.0 mi SSW 3.5 mph - N/A   Clear
7:53 AM 64.0 °F 43.0 °F 46% 29.70 in 10.0 mi ENE 9.2 mph - N/A   Mostly Cloudy
8:53 AM 64.9 °F 42.1 °F 43% 29.71 in 10.0 mi ESE 4.6 mph - N/A   Clear
9:53 AM 68.0 °F 39.9 °F 36% 29.74 in 10.0 mi NNE 6.9 mph - N/A   Mostly Cloudy
10:53 AM 69.1 °F 39.9 °F 35% 29.74 in 10.0 mi NW 11.5 mph - N/A   Mostly Cloudy
11:53 AM 70.0 °F 41.0 °F 35% 29.73 in 10.0 mi NNW 8.1 mph - N/A   Mostly Cloudy
12:53 PM 70.0 °F 41.0 °F 35% 29.70 in 10.0 mi NE 5.8 mph - N/A   Mostly Cloudy
1:53 PM 69.1 °F 39.9 °F 35% 29.67 in 10.0 mi Variable 3.5 mph - N/A   Mostly Cloudy
2:53 PM 69.1 °F 39.9 °F 35% 29.66 in 10.0 mi NE 6.9 mph - 0.00 in Rain Light Rain
3:53 PM 66.9 °F 44.1 °F 44% 29.66 in 10.0 mi NNW 11.5 mph - 0.00 in   Mostly Cloudy
4:53 PM 64.9 °F 46.0 °F 50% 29.67 in 10.0 mi NNW 12.7 mph - 0.00 in Rain Light Rain
5:53 PM 60.1 °F 48.9 °F 67% 29.68 in 10.0 mi NW 18.4 mph - 0.00 in Rain Light Rain
6:53 PM 57.0 °F 48.9 °F 74% 29.70 in 10.0 mi NW 13.8 mph - 0.03 in Rain Light Rain
7:53 PM 57.9 °F 48.9 °F 72% 29.72 in 10.0 mi South 5.8 mph - 0.00 in Rain Rain
8:53 PM 55.9 °F 46.0 °F 69% 29.74 in 10.0 mi NW 15.0 mph 21.9 mph 0.04 in Rain Light Rain
9:53 PM 55.0 °F 46.0 °F 72% 29.74 in 10.0 mi NNE 12.7 mph 19.6 mph 0.00 in   Mostly Cloudy
10:53 PM 54.0 °F 46.9 °F 77% 29.76 in 10.0 mi Calm Calm - N/A   Clear
11:53 PM 53.1 °F 46.9 °F 80% 29.77 in 10.0 mi NE 3.5 mph - N/A   Clear